Location: Mentone
(34.5413°N, 85.5351°W)
Time: 08:26:59
(UTC-05:00)

ATLAS 5 CENTAUR R/B - Visible Passes

Search period start: 16 September 2014 00:00
Search period end: 26 September 2014 00:00
Orbit: 716 x 947 km, 63.4° (Epoch: 14 September)

Date Brightness Start Highest point End Pass type
(mag) Time Alt. Az. Time Alt. Az. Time Alt. Az.
16 Sep 5.2 03:23:09 10° NNE 03:25:20 12° NE 03:27:32 10° ENE visible
16 Sep 2.9 05:05:11 10° NNW 05:11:11 63° ENE 05:17:22 10° SE visible
16 Sep 1.9 19:51:43 10° SSW 19:56:46 79° ESE 20:02:08 10° NNE visible
16 Sep 4.8 21:39:13 10° WNW 21:42:11 15° NW 21:45:16 10° N visible
17 Sep 5.2 03:04:54 10° NNE 03:06:43 11° NE 03:08:33 10° NE visible
17 Sep 2.9 04:46:39 10° NNW 04:52:38 60° ENE 04:58:48 10° SE visible
17 Sep 1.9 19:33:12 10° SSW 19:38:15 74° ESE 19:43:35 10° NE visible
17 Sep 4.8 21:20:27 10° W 21:23:36 16° NW 21:26:51 10° N visible
18 Sep 5.3 02:46:45 10° NNE 02:48:06 11° NE 02:49:29 10° NE visible
18 Sep 3.0 04:28:08 10° NNW 04:34:05 57° NE 04:40:13 10° SE visible
18 Sep 1.9 19:14:41 10° SSW 19:19:43 69° ESE 19:25:01 10° NE visible
18 Sep 4.7 21:01:42 10° W 21:05:00 17° NW 21:08:26 10° N visible
19 Sep 5.3 02:28:53 10° NNE 02:29:30 10° NE 02:30:07 10° NE visible
19 Sep 3.1 04:09:37 10° NNW 04:15:32 54° NE 04:21:37 10° SE visible
19 Sep 3.4 05:55:17 10° WNW 05:59:57 23° WSW 06:04:42 10° SSW visible
19 Sep 4.7 20:42:58 10° W 20:46:25 18° NW 20:50:00 10° N visible
20 Sep 3.1 03:51:06 10° NNW 03:56:58 51° NE 04:03:01 10° SE visible
20 Sep 3.4 05:36:38 10° WNW 05:41:26 25° WSW 05:46:20 10° SSW visible
20 Sep 4.6 20:24:14 10° W 20:27:50 19° NW 20:31:33 10° N visible
21 Sep 3.2 03:37:06 42° NNE 03:38:25 48° NE 03:44:25 10° SE visible
21 Sep 3.3 05:19:04 14° WNW 05:22:55 26° WSW 05:27:57 10° SSW visible
21 Sep 4.6 20:05:32 10° W 20:09:14 19° NW 20:13:06 10° N visible
22 Sep 4.2 03:23:34 22° ESE 03:23:34 22° ESE 03:25:48 10° SE visible
22 Sep 3.3 05:05:24 26° SW 05:05:24 26° SW 05:09:33 10° SSW visible
22 Sep 4.5 19:46:49 10° W 19:50:39 21° NW 19:54:39 10° N visible
23 Sep 4.3 04:50:34 12° SSW 04:50:34 12° SSW 04:51:09 10° S visible
23 Sep 4.5 19:28:07 10° W 19:32:04 22° NW 19:36:11 10° N visible
24 Sep 4.4 19:09:26 10° W 19:13:29 23° NW 19:17:43 10° N visible
25 Sep 4.3 18:50:45 10° W 18:54:54 24° NW 18:59:14 10° N visible
